| time (UTC) | temp F | wind direction | speed knots | gust knots | rain 1hr in | rain 24hr in | rain mn in | humidity % | barometer mb |
| 20260503021638 | 31 | 192 | 2.6 | 9.6 | 0.00 | 0.00 | 0.00 | 84 | 966.0 |
| 20260503021108 | 31 | 87 | 2.6 | 9.6 | 0.00 | 0.00 | 0.00 | 84 | 966.0 |
| 20260503020608 | 31 | 202 | 2.6 | 9.6 | 0.00 | 0.00 | 0.00 | 83 | 966.0 |
| 20260503020038 | 31 | 163 | 2.6 | 9.6 | 0.00 | 0.00 | 0.00 | 83 | 966.0 |
| 20260503015538 | 30 | 136 | 2.6 | 9.6 | 0.00 | 0.00 | 0.00 | 83 | 966.0 |
| 20260503015038 | 31 | 88 | 3.5 | 9.6 | 0.00 | 0.00 | 0.00 | 82 | 966.1 |
| 20260503014538 | 31 | 103 | 3.5 | 8.7 | 0.00 | 0.00 | 0.00 | 82 | 966.0 |
| 20260503014038 | 31 | 176 | 4.3 | 7.8 | 0.00 | 0.00 | 0.00 | 82 | 966.1 |
| 20260503013538 | 31 | 185 | 4.3 | 7.8 | 0.00 | 0.00 | 0.00 | 82 | 966.1 |
| 20260503013038 | 31 | 193 | 3.5 | 7.8 | 0.00 | 0.00 | 0.00 | 83 | 966.0 |
| 20260503012538 | 31 | 196 | 5.2 | 11.3 | 0.00 | 0.00 | 0.00 | 83 | 966.0 |
| 20260503012038 | 31 | 186 | 6.1 | 13.9 | 0.00 | 0.00 | 0.00 | 83 | 966.0 |
| 20260503011508 | 31 | 185 | 6.1 | 14.8 | 0.00 | 0.00 | 0.00 | 84 | 966.0 |
| 20260503010938 | 31 | 176 | 5.2 | 14.8 | 0.00 | 0.00 | 0.00 | 84 | 966.0 |
| 20260503010438 | 31 | 182 | 4.3 | 12.2 | 0.00 | 0.00 | 0.00 | 85 | 966.0 |
| 20260503005908 | 31 | 150 | 3.5 | 9.6 | 0.00 | 0.00 | 0.00 | 85 | 966.0 |
| 20260503005408 | 31 | 60 | 2.6 | 7.8 | 0.00 | 0.00 | 0.00 | 85 | 966.0 |
| 20260503004908 | 31 | 135 | 2.6 | 11.3 | 0.00 | 0.00 | 0.00 | 85 | 966.0 |
| 20260503004408 | 31 | 136 | 2.6 | 11.3 | 0.00 | 0.00 | 0.00 | 85 | 966.0 |
| 20260503003838 | 31 | 152 | 2.6 | 7.8 | 0.00 | 0.00 | 0.00 | 85 | 966.0 |
| 20260503003338 | 31 | 109 | 4.3 | 11.3 | 0.00 | 0.00 | 0.00 | 85 | 966.0 |
| 20260503002808 | 31 | 2 | 4.3 | 11.3 | 0.00 | 0.00 | 0.00 | 84 | 966.0 |
| 20260503002308 | 31 | 183 | 4.3 | 11.3 | 0.00 | 0.00 | 0.00 | 84 | 966.0 |
| 20260503001808 | 31 | 179 | 4.3 | 12.2 | 0.00 | 0.00 | 0.00 | 84 | 966.0 |
| 20260503001308 | 31 | 189 | 5.2 | 12.2 | 0.00 | 0.00 | 0.00 | 84 | 966.0 |
| 20260503000808 | 31 | 182 | 5.2 | 13.0 | 0.00 | 0.00 | 0.00 | 84 | 966.0 |
| 20260503000238 | 31 | 168 | 4.3 | 13.0 | 0.00 | 0.00 | 0.00 | 84 | 966.0 |
| 20260502235738 | 31 | 161 | 3.5 | 13.0 | 0.00 | 0.00 | 0.00 | 84 | 966.0 |
| 20260502235238 | 31 | 101 | 4.3 | 11.3 | 0.00 | 0.00 | 0.00 | 83 | 966.0 |
| 20260502234708 | 31 | 94 | 4.3 | 11.3 | 0.00 | 0.00 | 0.00 | 82 | 965.6 |
| 20260502234208 | 32 | 208 | 5.2 | 11.3 | 0.00 | 0.00 | 0.00 | 82 | 966.0 |
| 20260502233638 | 32 | 148 | 5.2 | 13.9 | 0.00 | 0.00 | 0.00 | 82 | 965.6 |
| 20260502233138 | 32 | 183 | 5.2 | 13.9 | 0.00 | 0.00 | 0.00 | 83 | 966.0 |
| 20260502232637 | 32 | 164 | 3.5 | 13.0 | 0.00 | 0.00 | 0.00 | 84 | 965.6 |
| 20260502232137 | 31 | 95 | 3.5 | 13.0 | 0.00 | 0.00 | 0.00 | 84 | 966.0 |
| 20260502231637 | 31 | 138 | 3.5 | 11.3 | 0.00 | 0.00 | 0.00 | 85 | 966.0 |
| 20260502231107 | 31 | 53 | 3.5 | 11.3 | 0.00 | 0.00 | 0.00 | 86 | 966.0 |
| 20260502230538 | 32 | 147 | 4.3 | 12.2 | 0.00 | 0.00 | 0.00 | 86 | 965.6 |
| 20260502230037 | 32 | 89 | 4.3 | 12.2 | 0.00 | 0.00 | 0.00 | 86 | 966.0 |
| 20260502225537 | 32 | 123 | 4.3 | 12.2 | 0.00 | 0.00 | 0.00 | 85 | 966.0 |
| 20260502225007 | 32 | 177 | 4.3 | 12.2 | 0.00 | 0.00 | 0.00 | 85 | 966.0 |
| 20260502224507 | 32 | 157 | 3.5 | 12.2 | 0.00 | 0.00 | 0.00 | 84 | 966.0 |
| 20260502224007 | 32 | 161 | 3.5 | 11.3 | 0.00 | 0.00 | 0.00 | 84 | 966.0 |
| 20260502223437 | 32 | 95 | 3.5 | 12.2 | 0.00 | 0.00 | 0.00 | 84 | 966.0 |
| 20260502222937 | 32 | 216 | 3.5 | 12.2 | 0.00 | 0.00 | 0.00 | 84 | 966.0 |
| 20260502222437 | 32 | 96 | 3.5 | 10.4 | 0.00 | 0.00 | 0.00 | 84 | 966.0 |
| 20260502221907 | 33 | 66 | 2.6 | 10.4 | 0.00 | 0.00 | 0.00 | 84 | 965.6 |
| 20260502221337 | 33 | 75 | 2.6 | 12.2 | 0.00 | 0.00 | 0.00 | 83 | 966.0 |
| 20260502220837 | 33 | 122 | 2.6 | 12.2 | 0.00 | 0.00 | 0.00 | 83 | 966.0 |
| 20260502220337 | 33 | 116 | 1.7 | 7.8 | 0.00 | 0.00 | 0.00 | 83 | 966.0 |
| 20260502215837 | 33 | 153 | 1.7 | 7.8 | 0.00 | 0.00 | 0.00 | 82 | 966.0 |
| 20260502215337 | 33 | 115 | 2.6 | 7.8 | 0.00 | 0.00 | 0.00 | 82 | 966.0 |
| 20260502214837 | 34 | 123 | 4.3 | 12.2 | 0.00 | 0.00 | 0.00 | 81 | 966.0 |
| 20260502214337 | 34 | 192 | 4.3 | 13.9 | 0.00 | 0.00 | 0.00 | 81 | 966.0 |
| 20260502213837 | 34 | 81 | 5.2 | 13.9 | 0.00 | 0.00 | 0.00 | 81 | 965.6 |
| 20260502213307 | 34 | 104 | 5.2 | 13.9 | 0.00 | 0.00 | 0.00 | 80 | 966.0 |
| 20260502212807 | 34 | 98 | 4.3 | 13.9 | 0.00 | 0.00 | 0.00 | 79 | 966.0 |
| 20260502212237 | 34 | 173 | 3.5 | 11.3 | 0.00 | 0.00 | 0.00 | 80 | 966.0 |
| 20260502211737 | 34 | 127 | 1.7 | 7.0 | 0.00 | 0.00 | 0.00 | 82 | 966.0 |
| 20260502211237 | 35 | 160 | 2.6 | 9.6 | 0.00 | 0.00 | 0.00 | 82 | 966.0 |
| 20260502210707 | 35 | 93 | 2.6 | 9.6 | 0.00 | 0.00 | 0.00 | 81 | 966.0 |
| 20260502210207 | 35 | 82 | 2.6 | 10.4 | 0.00 | 0.00 | 0.00 | 80 | 966.0 |
| 20260502205707 | 36 | 121 | 2.6 | 10.4 | 0.00 | 0.00 | 0.00 | 81 | 966.0 |
| 20260502205207 | 36 | 185 | 3.5 | 8.7 | 0.00 | 0.00 | 0.00 | 81 | 966.2 |
| 20260502204707 | 36 | 42 | 4.3 | 13.9 | 0.00 | 0.00 | 0.00 | 81 | 966.1 |
| 20260502204137 | 36 | 176 | 5.2 | 13.9 | 0.00 | 0.00 | 0.00 | 80 | 966.1 |
| 20260502203637 | 36 | 191 | 5.2 | 13.9 | 0.00 | 0.00 | 0.00 | 80 | 966.0 |
| 20260502203137 | 36 | 189 | 5.2 | 16.5 | 0.00 | 0.00 | 0.00 | 79 | 966.0 |
| 20260502202637 | 37 | 202 | 5.2 | 16.5 | 0.00 | 0.00 | 0.00 | 79 | 966.0 |
| 20260502202137 | 37 | 98 | 4.3 | 13.9 | 0.00 | 0.00 | 0.00 | 78 | 966.0 |
| 20260502201637 | 37 | 171 | 4.3 | 12.2 | 0.00 | 0.00 | 0.00 | 78 | 966.0 |
| 20260502201137 | 37 | 118 | 4.3 | 12.2 | 0.00 | 0.00 | 0.00 | 77 | 966.0 |
| 20260502200636 | 37 | 125 | 4.3 | 13.0 | 0.00 | 0.00 | 0.00 | 77 | 966.0 |
| 20260502200136 | 37 | 126 | 4.3 | 13.0 | 0.00 | 0.00 | 0.00 | 76 | 966.0 |
| 20260502195636 | 37 | 121 | 4.3 | 12.2 | 0.00 | 0.00 | 0.00 | 75 | 966.0 |
| 20260502195136 | 37 | 187 | 4.3 | 13.0 | 0.00 | 0.00 | 0.00 | 75 | 966.0 |
| 20260502194636 | 38 | 85 | 5.2 | 13.0 | 0.00 | 0.00 | 0.00 | 73 | 966.0 |
| 20260502194136 | 38 | 200 | 5.2 | 13.0 | 0.00 | 0.00 | 0.00 | 73 | 966.0 |
| 20260502193636 | 38 | 197 | 6.1 | 14.8 | 0.00 | 0.00 | 0.00 | 73 | 966.0 |
| 20260502193136 | 38 | 251 | 6.1 | 14.8 | 0.00 | 0.00 | 0.00 | 73 | 966.0 |
| 20260502192607 | 38 | 193 | 5.2 | 13.0 | 0.00 | 0.00 | 0.00 | 73 | 965.6 |
| 20260502192106 | 38 | 156 | 4.3 | 13.0 | 0.00 | 0.00 | 0.00 | 72 | 965.6 |
| 20260502191606 | 38 | 167 | 3.5 | 8.7 | 0.00 | 0.00 | 0.00 | 73 | 965.6 |
| 20260502191106 | 38 | 191 | 3.5 | 10.4 | 0.00 | 0.00 | 0.00 | 74 | 965.6 |
| 20260502190606 | 38 | 155 | 4.3 | 10.4 | 0.00 | 0.00 | 0.00 | 74 | 965.5 |
| 20260502190106 | 38 | 163 | 3.5 | 9.6 | 0.00 | 0.00 | 0.00 | 74 | 965.5 |
| 20260502185606 | 38 | 158 | 3.5 | 9.6 | 0.00 | 0.00 | 0.00 | 73 | 965.5 |
| 20260502185106 | 38 | 197 | 4.3 | 9.6 | 0.00 | 0.00 | 0.00 | 74 | 965.6 |
| 20260502184606 | 38 | 152 | 4.3 | 12.2 | 0.00 | 0.00 | 0.00 | 75 | 965.4 |
| 20260502184036 | 38 | 214 | 5.2 | 12.2 | 0.00 | 0.00 | 0.00 | 76 | 965.6 |
| 20260502183536 | 38 | 123 | 5.2 | 12.2 | 0.00 | 0.00 | 0.00 | 77 | 965.4 |
| 20260502183006 | 38 | 168 | 4.3 | 10.4 | 0.00 | 0.00 | 0.00 | 78 | 965.4 |
| 20260502182436 | 38 | 149 | 5.2 | 14.8 | 0.00 | 0.00 | 0.00 | 78 | 965.4 |
| 20260502181936 | 38 | 165 | 5.2 | 14.8 | 0.00 | 0.00 | 0.00 | 78 | 965.4 |
| 20260502181406 | 38 | 195 | 5.2 | 14.8 | 0.00 | 0.00 | 0.00 | 78 | 965.3 |
| 20260502180906 | 38 | 145 | 5.2 | 13.9 | 0.00 | 0.00 | 0.00 | 77 | 965.3 |
| 20260502180406 | 38 | 168 | 5.2 | 15.6 | 0.00 | 0.00 | 0.00 | 79 | 965.6 |
| 20260502170336 | 39 | 178 | 6.1 | 13.0 | 0.00 | 0.00 | 0.00 | 77 | 965.4 |
| 20260502164306 | 40 | 197 | 6.1 | 14.8 | 0.00 | 0.00 | 0.00 | 78 | 965.2 |
| 20260502163806 | 40 | 171 | 6.1 | 16.5 | 0.00 | 0.00 | 0.00 | 80 | 965.1 |
| 20260502163236 | 40 | 186 | 7.0 | 16.5 | 0.00 | 0.00 | 0.00 | 80 | 965.2 |
| 20260502162736 | 40 | 186 | 7.8 | 18.2 | 0.00 | 0.00 | 0.00 | 81 | 965.2 |
| 20260502162235 | 40 | 188 | 7.0 | 18.2 | 0.00 | 0.00 | 0.00 | 82 | 965.1 |
| 20260502161705 | 41 | 165 | 7.0 | 18.2 | 0.00 | 0.00 | 0.00 | 83 | 965.1 |
| 20260502161205 | 41 | 172 | 7.0 | 15.6 | 0.00 | 0.00 | 0.00 | 84 | 965.0 |
| 20260502160635 | 41 | 207 | 7.0 | 15.6 | 0.00 | 0.00 | 0.00 | 86 | 965.1 |
| 20260502160106 | 41 | 198 | 6.1 | 14.8 | 0.00 | 0.00 | 0.00 | 86 | 965.0 |
| 20260502152035 | 42 | 181 | 4.3 | 12.2 | 0.00 | 0.00 | 0.00 | 89 | 965.1 |
| 20260502151535 | 42 | 202 | 5.2 | 14.8 | 0.00 | 0.00 | 0.00 | 89 | 965.1 |
| 20260502151035 | 41 | 189 | 5.2 | 14.8 | 0.00 | 0.00 | 0.00 | 89 | 965.4 |
| 20260502150505 | 41 | 173 | 5.2 | 13.0 | 0.00 | 0.00 | 0.00 | 90 | 965.4 |
| 20260502130434 | 45 | 226 | 5.2 | 10.4 | 0.00 | 0.00 | 0.00 | 91 | 964.9 |
| 20260502123404 | 48 | 18 | 2.6 | 11.3 | 0.00 | 0.00 | 0.00 | 75 | 964.9 |
| 20260502122904 | 48 | 99 | 2.6 | 11.3 | 0.00 | 0.00 | 0.00 | 75 | 964.9 |
| 20260502122404 | 48 | 113 | 1.7 | 8.7 | 0.00 | 0.00 | 0.00 | 74 | 964.9 |
| 20260502121904 | 48 | 119 | 0.9 | 7.0 | 0.00 | 0.00 | 0.00 | 72 | 965.0 |
| 20260502121404 | 49 | 35 | 0.9 | 5.2 | 0.00 | 0.00 | 0.00 | 71 | 964.9 |
| 20260502120904 | 49 | 300 | 0.9 | 5.2 | 0.00 | 0.00 | 0.00 | 72 | 965.0 |
| 20260502120404 | 49 | 92 | 0.9 | 7.0 | 0.00 | 0.00 | 0.00 | 72 | 965.0 |
| 20260502115904 | 49 | 105 | 1.7 | 7.0 | 0.00 | 0.00 | 0.00 | 70 | 965.0 |
| 20260502115404 | 49 | 47 | 1.7 | 9.6 | 0.00 | 0.00 | 0.00 | 71 | 965.0 |
| 20260502114904 | 49 | 76 | 2.6 | 9.6 | 0.00 | 0.00 | 0.00 | 71 | 964.9 |
| 20260502114404 | 49 | 153 | 2.6 | 9.6 | 0.00 | 0.00 | 0.00 | 70 | 964.9 |
| 20260502113904 | 49 | 29 | 2.6 | 9.6 | 0.00 | 0.00 | 0.00 | 70 | 964.9 |
| 20260502113334 | 49 | 37 | 2.6 | 9.6 | 0.00 | 0.00 | 0.00 | 69 | 964.9 |
| 20260502112834 | 50 | 78 | 2.6 | 8.7 | 0.00 | 0.00 | 0.00 | 68 | 964.8 |
| 20260502112334 | 50 | 113 | 2.6 | 13.0 | 0.00 | 0.00 | 0.00 | 68 | 964.8 |
| 20260502111834 | 50 | 136 | 2.6 | 13.0 | 0.00 | 0.00 | 0.00 | 67 | 964.6 |
| 20260502111334 | 51 | 260 | 3.5 | 10.4 | 0.00 | 0.00 | 0.00 | 67 | 964.5 |
| 20260502110834 | 50 | 110 | 3.5 | 11.3 | 0.00 | 0.00 | 0.00 | 67 | 964.6 |
| 20260502110304 | 51 | 356 | 3.5 | 11.3 | 0.00 | 0.00 | 0.00 | 66 | 964.6 |
| 20260502105734 | 51 | 103 | 2.6 | 9.6 | 0.00 | 0.00 | 0.00 | 65 | 964.6 |
| 20260502105234 | 52 | 75 | 2.6 | 8.7 | 0.00 | 0.00 | 0.00 | 64 | 964.7 |
| 20260502104704 | 52 | 349 | 2.6 | 7.8 | 0.00 | 0.00 | 0.00 | 64 | 964.7 |
| 20260502104204 | 52 | 101 | 2.6 | 7.8 | 0.00 | 0.00 | 0.00 | 63 | 964.7 |
| 20260502103704 | 52 | 109 | 1.7 | 7.8 | 0.00 | 0.00 | 0.00 | 62 | 964.8 |
| 20260502103204 | 53 | 173 | 1.7 | 8.7 | 0.00 | 0.00 | 0.00 | 64 | 964.6 |
| 20260502102634 | 53 | 174 | 0.9 | 8.7 | 0.00 | 0.00 | 0.00 | 62 | 964.6 |
| 20260502102134 | 53 | 165 | 1.7 | 7.0 | 0.00 | 0.00 | 0.00 | 62 | 964.7 |
| 20260502101634 | 53 | 143 | 1.7 | 7.0 | 0.00 | 0.00 | 0.00 | 62 | 964.8 |
| 20260502101104 | 53 | 126 | 1.7 | 7.0 | 0.00 | 0.00 | 0.00 | 61 | 964.6 |
| 20260502100603 | 54 | 46 | 0.9 | 4.3 | 0.00 | 0.00 | 0.00 | 60 | 964.8 |
| 20260502091433 | 55 | 103 | 0.9 | 3.5 | 0.00 | 0.00 | 0.00 | 61 | 964.8 |
| 20260502090933 | 55 | 113 | 0.9 | 3.5 | 0.00 | 0.00 | 0.00 | 60 | 964.8 |
| 20260502090433 | 54 | 117 | 1.7 | 5.2 | 0.00 | 0.00 | 0.00 | 61 | 964.8 |
| 20260502071133 | 52 | 145 | 1.7 | 5.2 | 0.00 | 0.00 | 0.00 | 63 | 964.9 |
| 20260502070633 | 52 | 105 | 1.7 | 5.2 | 0.00 | 0.00 | 0.00 | 62 | 964.8 |
| 20260502070133 | 52 | 141 | 1.7 | 4.3 | 0.00 | 0.00 | 0.00 | 62 | 964.9 |
| 20260502065603 | 54 | 233 | 1.7 | 4.3 | 0.00 | 0.00 | 0.00 | 61 | 964.9 |
| 20260502065102 | 55 | 118 | 0.9 | 3.5 | 0.00 | 0.00 | 0.00 | 61 | 964.9 |
| 20260502064532 | 53 | 99 | 0.9 | 3.5 | 0.00 | 0.00 | 0.00 | 62 | 964.9 |
| 20260502064032 | 51 | 349 | 0.9 | 4.3 | 0.00 | 0.00 | 0.00 | 64 | 964.9 |
| 20260502063532 | 52 | 21 | 0.9 | 4.3 | 0.00 | 0.00 | 0.00 | 63 | 964.8 |
| 20260502063032 | 52 | 124 | 1.7 | 4.3 | 0.00 | 0.00 | 0.00 | 65 | 964.7 |
| 20260502062502 | 51 | 108 | 0.9 | 4.3 | 0.00 | 0.00 | 0.00 | 65 | 964.8 |
| 20260502061932 | 51 | 162 | 0.9 | 4.3 | 0.00 | 0.00 | 0.00 | 67 | 964.8 |
| 20260502061432 | 51 | 173 | 0.9 | 5.2 | 0.00 | 0.00 | 0.00 | 69 | 964.8 |
| 20260502060932 | 49 | 9 | 0.9 | 5.2 | 0.00 | 0.00 | 0.00 | 68 | 964.7 |
| 20260502060432 | 49 | 134 | 1.7 | 4.3 | 0.00 | 0.00 | 0.00 | 70 | 964.9 |
| 20260502055932 | 49 | 40 | 1.7 | 7.0 | 0.00 | 0.00 | 0.00 | 70 | 964.8 |
| 20260502055432 | 48 | 156 | 1.7 | 7.8 | 0.00 | 0.00 | 0.00 | 71 | 964.8 |
| 20260502054932 | 48 | 89 | 1.7 | 7.8 | 0.00 | 0.00 | 0.00 | 70 | 964.9 |
| 20260502054432 | 49 | 187 | 1.7 | 7.8 | 0.00 | 0.00 | 0.00 | 68 | 964.7 |
| 20260502053932 | 49 | 84 | 2.6 | 7.8 | 0.00 | 0.00 | 0.00 | 69 | 964.6 |
| 20260502053432 | 49 | 164 | 2.6 | 8.7 | 0.00 | 0.00 | 0.00 | 67 | 965.0 |
| 20260502052932 | 46 | 166 | 1.7 | 8.7 | 0.00 | 0.00 | 0.00 | 71 | 964.7 |
| 20260502052402 | 46 | 127 | 1.7 | 6.1 | 0.00 | 0.00 | 0.00 | 72 | 964.7 |
| 20260502051902 | 46 | 201 | 0.9 | 5.2 | 0.00 | 0.00 | 0.00 | 72 | 964.5 |
| 20260502051332 | 46 | 155 | 0.9 | 5.2 | 0.00 | 0.00 | 0.00 | 74 | 964.5 |
| 20260502050832 | 46 | 107 | 0.9 | 3.5 | 0.00 | 0.00 | 0.00 | 75 | 964.5 |
| 20260502050332 | 45 | 108 | 0.9 | 4.3 | 0.00 | 0.00 | 0.00 | 76 | 964.8 |
| 20260502045802 | 44 | 119 | 1.7 | 6.1 | 0.00 | 0.00 | 0.00 | 77 | 964.8 |
| 20260502045305 | 44 | 86 | 1.7 | 7.0 | 0.00 | 0.00 | 0.00 | 75 | 964.8 |
| 20260502044802 | 43 | 218 | 1.7 | 7.0 | 0.00 | 0.00 | 0.00 | 74 | 964.7 |
| 20260502044302 | 43 | 183 | 0.9 | 5.2 | 0.00 | 0.00 | 0.00 | 75 | 964.7 |
| 20260502043802 | 43 | 344 | 0.9 | 5.2 | 0.00 | 0.00 | 0.00 | 75 | 964.9 |
| 20260502043302 | 44 | 55 | 0.9 | 5.2 | 0.00 | 0.00 | 0.00 | 74 | 964.8 |
| 20260502042802 | 44 | 103 | 0.9 | 5.2 | 0.00 | 0.00 | 0.00 | 74 | 965.0 |
| 20260502042305 | 45 | 282 | 0.9 | 4.3 | 0.00 | 0.00 | 0.00 | 75 | 964.9 |
| 20260502041802 | 44 | 212 | 0.9 | 4.3 | 0.00 | 0.00 | 0.00 | 76 | 965.0 |
| 20260502041302 | 45 | 201 | 0.9 | 3.5 | 0.00 | 0.00 | 0.00 | 75 | 964.7 |
| 20260502040802 | 45 | 272 | 0.9 | 2.6 | 0.00 | 0.00 | 0.00 | 73 | 964.6 |
| 20260502040302 | 45 | 19 | 1.7 | 2.6 | 0.00 | 0.00 | 0.00 | 72 | 964.6 |
| 20260502035802 | 45 | 80 | 0.9 | 2.6 | 0.00 | 0.00 | 0.00 | 70 | 964.7 |
| 20260502035232 | 46 | 191 | 0.0 | 2.6 | 0.00 | 0.00 | 0.00 | 71 | 964.7 |
| 20260502034732 | 46 | 156 | 0.9 | 2.6 | 0.00 | 0.00 | 0.00 | 71 | 964.9 |
| 20260502034202 | 45 | 234 | 0.9 | 2.6 | 0.00 | 0.00 | 0.00 | 70 | 964.9 |
| 20260502033702 | 45 | 200 | 0.9 | 2.6 | 0.00 | 0.00 | 0.00 | 69 | 965.0 |
| 20260502033202 | 45 | 214 | 0.0 | 1.7 | 0.00 | 0.00 | 0.00 | 72 | 965.1 |
| 20260502032702 | 46 | 235 | 0.9 | 2.6 | 0.00 | 0.00 | 0.00 | 71 | 965.2 |
| 20260502032202 | 44 | 182 | 0.9 | 4.3 | 0.00 | 0.00 | 0.00 | 74 | 965.3 |
| 20260502031632 | 43 | 168 | 0.9 | 4.3 | 0.00 | 0.00 | 0.00 | 75 | 965.2 |
| 20260502031102 | 42 | 122 | 0.9 | 2.6 | 0.00 | 0.00 | 0.00 | 75 | 965.3 |
| 20260502030601 | 42 | 87 | 0.9 | 2.6 | 0.00 | 0.00 | 0.00 | 75 | 965.4 |
| 20260502025601 | 42 | 350 | 0.9 | 4.3 | 0.00 | 0.00 | 0.00 | 72 | 965.6 |
| 20260502025101 | 43 | 343 | 0.9 | 4.3 | 0.00 | 0.00 | 0.00 | 71 | 965.5 |
| 20260502024601 | 44 | 166 | 0.9 | 3.5 | 0.00 | 0.00 | 0.00 | 70 | 965.3 |
| 20260502024101 | 44 | 358 | 0.9 | 2.6 | 0.00 | 0.00 | 0.00 | 70 | 965.4 |
| 20260502023531 | 45 | 305 | 0.9 | 2.6 | 0.00 | 0.00 | 0.00 | 70 | 965.3 |
| 20260502023031 | 45 | 57 | 0.9 | 2.6 | 0.00 | 0.00 | 0.00 | 70 | 965.4 |
| 20260502022531 | 45 | 197 | 1.7 | 2.6 | 0.00 | 0.00 | 0.00 | 70 | 965.3 |